Location: Pradons
(44.4746°N, 4.3578°E)
Time: 19:52:47
(UTC+00:00)

Cosmos 1703 - Pass Details

Date: 14 August 2020
Orbit: 523 x 541 km, 82.5° (Epoch: 01 October)

Event Time Altitude Azimuth Distance (km) Brightness Sun altitude
Rises 02:56:20 0° 346° (NNW) 2,708 7.2 -17.3°
Reaches altitude 10° 02:58:32 10° 342° (NNW) 1,810 6.2 -17.0°
Maximum altitude 03:02:24 53° 266° (W) 667 3.4 -16.5°
Enters shadow 03:04:04 30° 204° (SSW) 983 4.1 -16.2°
